Estherville, IA

10:46 AM CDT on August 22, 2017 (GMT -0500)
Estherville Municipal

Weather History for KEST - August, 2014

Change the Weather History Date:

Sunday, August 10, 2014

  Actual Average Record
Temperature  
Mean Temperature 69 °F 70 °F  
Max Temperature 76 °F 80 °F 97 °F (1958)
Min Temperature 62 °F 60 °F 44 °F (1967)
Degree Days  
Heating Degree Days 0 0  
Month to date heating degree days 0 0  
Since 1 June heating degree days 58 50  
Since 1 July heating degree days 27 9  
Cooling Degree Days 4 5  
Month to date cooling degree days 36 59  
Year to date cooling degree days 312 451  
Since 1 June cooling degree days 263 415  
Growing Degree Days 18 (Base 50)    
Moisture  
Dew Point 65 °F    
Average Humidity 87    
Maximum Humidity 100    
Minimum Humidity 74    
Precipitation  
Precipitation T in 0.13 in 1.85 in (1974)
Month to date precipitation 0.13 1.46  
Sea Level Pressure  
Sea Level Pressure 30.04 in    
Wind  
Wind Speed 6 mph (SSE)    
Max Wind Speed 13 mph    
Max Gust Speed 16 mph    
Visibility 6 miles    
Events Rain , Thunderstorm    
T = Trace of Precipitation, MM = Missing Value Source: NWS Daily Summary

Daily Weather History Graph

Daily Weather History Graph

Search for Another Location

Airport or City:

Trip Planner

Search our weather history database for the weather conditions in past years. The results will help you decide how hot, cold, wet, or windy it might be!

Date:

Astronomy

Aug. 10, 2014 Rise Set
Actual Time 6:18 AM CDT 8:29 PM CDT
Civil Twilight 5:47 AM CDT 9:00 PM CDT
Nautical Twilight 5:08 AM CDT 9:39 PM CDT
Astronomical Twilight 4:25 AM CDT 10:21 PM CDT
Moon 8:14 PM CDT (8/10) 6:13 AM CDT (8/10)
Length of Visible Light 15h 13m
Length of Day
14h 10m
Full, 100% of the Moon is Illuminated
Aug 10
Full
Aug 10
Full
Aug 17
Last Quarter
Aug 25
New
Sep 2
First Quarter

Hourly Weather History & Observations

Time (CDT) Temp. Dew Point Humidity Pressure Visibility Wind Dir Wind Speed Gust Speed Precip Events Conditions
12:52 AM 62.1 °F 61.0 °F 96% 30.02 in 4.0 mi SE 8.1 mph - N/A   Clear
1:52 AM 63.0 °F 62.1 °F 97% 30.04 in 4.0 mi South 4.6 mph - N/A   Clear
2:52 AM 62.1 °F 61.0 °F 96% 30.05 in 3.0 mi Calm Calm - N/A   Mostly Cloudy
3:52 AM 62.1 °F 62.1 °F 100% 30.05 in 3.0 mi SE 4.6 mph - N/A   Mostly Cloudy
4:52 AM 64.0 °F 64.0 °F 100% 30.03 in 4.0 mi SE 5.8 mph - N/A   Overcast
5:52 AM 64.9 °F 64.0 °F 97% 30.04 in 4.0 mi SE 3.5 mph - N/A   Overcast
6:38 AM 64.0 °F 63.0 °F 96% 30.06 in 2.5 mi ESE 3.5 mph - N/A   Overcast
6:52 AM 64.0 °F 63.0 °F 96% 30.05 in 2.5 mi Calm Calm - N/A   Overcast
7:29 AM 66.0 °F 64.0 °F 93% 30.07 in 3.0 mi SE 3.5 mph - N/A   Overcast
7:52 AM 66.0 °F 64.0 °F 93% 30.06 in 4.0 mi South 3.5 mph - N/A   Overcast
9:52 AM 70.0 °F 66.0 °F 87% 30.05 in 6.0 mi South 8.1 mph - N/A   Mostly Cloudy
10:52 AM 73.0 °F 66.9 °F 81% 30.06 in 7.0 mi SE 6.9 mph - N/A   Mostly Cloudy
11:35 AM 72.0 °F 66.0 °F 81% 30.08 in 7.0 mi South 8.1 mph - N/A   Overcast
11:44 AM 72.0 °F 66.0 °F 81% 30.07 in 7.0 mi South 8.1 mph - N/A   Overcast
11:52 AM 73.0 °F 66.0 °F 79% 30.06 in 7.0 mi South 9.2 mph - N/A   Overcast
12:52 PM 73.0 °F 66.9 °F 81% 30.06 in 6.0 mi SSE 9.2 mph - N/A   Haze
1:52 PM 75.0 °F 68.0 °F 79% 30.04 in 7.0 mi South 9.2 mph - N/A   Scattered Clouds
3:52 PM 75.9 °F 66.9 °F 74% 30.01 in 9.0 mi South 9.2 mph - N/A   Overcast
4:37 PM 75.9 °F 68.0 °F 76% 30.02 in 8.0 mi SSW 10.4 mph - N/A Thunderstorm Overcast
4:52 PM 75.0 °F 68.0 °F 79% 30.00 in 9.0 mi South 9.2 mph - N/A Thunderstorm Overcast
5:32 PM 75.0 °F 68.0 °F 79% 30.03 in 9.0 mi North 10.4 mph - N/A Thunderstorm Thunderstorm
5:52 PM 69.1 °F 66.9 °F 93% 30.03 in 7.0 mi NNE 9.2 mph - 0.00 in Rain , Thunderstorm Light Thunderstorms and Rain
6:00 PM 68.0 °F 66.9 °F 96% 30.04 in 2.5 mi NNE 5.8 mph - 0.00 in Rain , Thunderstorm Heavy Thunderstorms and Rain
6:24 PM 66.0 °F 66.0 °F 100% 30.04 in 1.0 mi South 4.6 mph - N/A Rain , Thunderstorm Heavy Rain
6:29 PM 66.0 °F 64.9 °F 96% 30.04 in 2.0 mi SSE 4.6 mph - N/A Rain , Thunderstorm Rain
6:32 PM 66.0 °F 64.9 °F 96% 30.04 in 3.0 mi SSE 4.6 mph - N/A Rain , Thunderstorm Light Rain
6:44 PM 66.0 °F 66.0 °F 100% 30.03 in 8.0 mi South 4.6 mph - N/A Rain , Thunderstorm Light Rain
7:08 PM 66.9 °F 66.9 °F 100% 30.04 in 10.0 mi SSE 5.8 mph - N/A   Overcast
7:15 PM 68.0 °F 66.9 °F 96% 30.04 in 10.0 mi SSE 5.8 mph - N/A   Mostly Cloudy
7:52 PM 68.0 °F 66.0 °F 93% 30.02 in 10.0 mi SSW 5.8 mph - N/A   Clear
8:52 PM 66.9 °F 66.0 °F 97% 30.01 in 10.0 mi West 4.6 mph - N/A   Clear
9:52 PM 64.9 °F 64.9 °F 100% 30.01 in 10.0 mi West 6.9 mph - N/A   Clear
11:52 PM 66.9 °F 64.9 °F 93% 30.02 in 7.0 mi NW 6.9 mph - N/A   Clear